Location: Corcelles
(46.1547°N, 4.7234°E)
Time: 20:48:38
(UTC+00:00)

SL-8 R/B - Pass Details

Date: 14 July 2020
Orbit: 656 x 667 km, 48.4° (Epoch: 14 August)

Event Time Altitude Azimuth Distance (km) Brightness Sun altitude
Exits shadow 01:46:36 22° 252° (WSW) 1,447 5.0 -17.0°
Maximum altitude 01:49:44 89° 345° (NNW) 668 3.6 -16.7°
Drops below altitude 10° 01:54:33 10° 73° (ENE) 2,080 6.9 -16.3°
Sets 01:56:54 0° 73° (ENE) 2,992 7.8 -16.1°
